Location: Kumla
(59.1265°N, 15.1401°E)
Time: 21:20:44
(UTC+01:00)

Vanguard 2 Rocket - Pass Details

Date: 09 December 2023
Orbit: 554 x 3309 km, 32.9° (Epoch: 28 February)

Event Time Altitude Azimuth Distance (km) Brightness Sun altitude
Rises 12:27:16 0° 198° (SSW) 5,891 13.2 7.7°
Reaches altitude 10° 12:32:42 10° 181° (S) 5,343 13.4 7.6°
Maximum altitude 12:42:21 18° 145° (SE) 5,232 11.5 7.4°
Drops below altitude 10° 12:53:24 10° 111° (ESE) 6,254 11.3 7.1°
Sets 13:00:38 0° 97° (E) 7,268 11.4 6.8°
